Location: Burjasot
(39.5167°N, 0.4167°W)
Time: 17:41:04
(UTC+02:00)

ISS - Pass Details

Date: 25 May 2019
Orbit: 407 x 418 km, 51.6° (Epoch: 20 June)

Event Time Altitude Azimuth Distance (km) Brightness Sun altitude
Rises 23:20:42 0° 307° (NW) 2,355 1.5 -19.1°
Reaches altitude 10° 23:24:25 10° 349° (N) 1,496 0.0 -19.6°
Maximum altitude 23:25:08 11° 2° (N) 1,466 -0.3 -19.6°
Drops below altitude 10° 23:25:51 10° 14° (NNE) 1,497 -0.5 -19.7°
Enters shadow 23:29:27 - 56° (NE) 2,321 0.0 -20.2°
